Maple Lake, MN

12:30 PM CST on January 24, 2017 (GMT -0600)
Maple Lake Municipal

Weather History for KMGG - April, 2013

Change the Weather History Date:

Sunday, April 21, 2013

  Actual Average (KSTC) Record (KSTC)
Temperature  
Mean Temperature 40 °F -  
Max Temperature 47 °F 60 °F 96 °F (1980)
Min Temperature 32 °F 33 °F 21 °F (1950)
Degree Days  
Heating Degree Days 26    
Moisture  
Dew Point 35 °F    
Average Humidity 87    
Maximum Humidity 99    
Minimum Humidity 59    
Precipitation  
Precipitation 0.13 in - - ()
Sea Level Pressure  
Sea Level Pressure 30.14 in    
Wind  
Wind Speed 8 mph (SSE)    
Max Wind Speed 18 mph    
Max Gust Speed 24 mph    
Visibility 8 miles    
Events Rain , Snow    
Averages and records for this station are not official NWS values.
T = Trace of Precipitation, MM = Missing Value Source: NWS Daily Summary

Daily Weather History Graph

Daily Weather History Graph

Search for Another Location

Airport or City:

Trip Planner

Search our weather history database for the weather conditions in past years. The results will help you decide how hot, cold, wet, or windy it might be!

Date:

Astronomy

Apr. 21, 2013 Rise Set
Actual Time 6:20 AM CDT 8:09 PM CDT
Civil Twilight 5:48 AM CDT 8:41 PM CDT
Nautical Twilight 5:10 AM CDT 9:19 PM CDT
Astronomical Twilight 4:28 AM CDT 10:01 PM CDT
Moon 3:44 PM CDT (4/21) 3:55 AM CDT (4/21)
Length of Visible Light 14h 52m
Length of Day
13h 49m
Waxing Gibbous, 80% of the Moon is Illuminated
Apr 21
Waxing Gibbous
Apr 25
Full
May 2
Last Quarter
May 9
New
May 17
First Quarter

Hourly Weather History & Observations

Time (CDT) Temp. Windchill Dew Point Humidity Pressure Visibility Wind Dir Wind Speed Gust Speed Precip Events Conditions
12:16 AM 32.0 °F 27.5 °F 20.3 °F 62% 30.29 in 10.0 mi SE 4.6 mph - N/A   Overcast
12:36 AM 33.1 °F 30.0 °F 20.3 °F 59% 30.29 in 10.0 mi SSE 3.5 mph - N/A   Overcast
12:56 AM 33.3 °F - 21.2 °F 61% 30.30 in 10.0 mi Calm Calm - N/A   Overcast
1:16 AM 33.8 °F 29.6 °F 22.8 °F 64% 30.30 in 10.0 mi South 4.6 mph - N/A   Overcast
1:36 AM 33.8 °F 29.6 °F 25.0 °F 70% 30.29 in 10.0 mi South 4.6 mph - N/A   Overcast
1:56 AM 32.2 °F 27.7 °F 29.1 °F 88% 30.29 in 2.0 mi SSE 4.6 mph - N/A Snow Light Snow
2:16 AM 32.0 °F 28.7 °F 30.0 °F 92% 30.28 in 3.0 mi SE 3.5 mph - N/A Snow Light Snow
2:36 AM 32.0 °F 27.5 °F 30.6 °F 94% 30.27 in 3.0 mi SE 4.6 mph - N/A Snow Light Snow
2:56 AM 32.0 °F 26.4 °F 30.7 °F 95% 30.27 in 4.0 mi ESE 5.8 mph - N/A Snow Light Snow
3:16 AM 32.2 °F 27.7 °F 31.1 °F 96% 30.26 in 4.0 mi ESE 4.6 mph - N/A Snow Light Snow
3:36 AM 32.4 °F 26.0 °F 31.8 °F 98% 30.26 in 7.0 mi ESE 6.9 mph - N/A Snow Light Snow
3:56 AM 32.5 °F 27.1 °F 32.0 °F 98% 30.25 in 2.5 mi ESE 5.8 mph - N/A Snow Light Snow
4:16 AM 32.4 °F 25.3 °F 32.0 °F 99% 30.24 in 2.5 mi ESE 8.1 mph - N/A Snow Light Snow
4:37 AM 32.7 °F 25.7 °F 32.0 °F 97% 30.24 in 3.0 mi ESE 8.1 mph - N/A Snow Light Snow
4:56 AM 32.9 °F 25.3 °F 32.2 °F 97% 30.23 in 7.0 mi ESE 9.2 mph - N/A   Overcast
5:16 AM 33.1 °F 25.5 °F 32.4 °F 97% 30.23 in 10.0 mi ESE 9.2 mph - N/A   Overcast
5:36 AM 33.3 °F 25.1 °F 32.4 °F 96% 30.22 in 10.0 mi ESE 10.4 mph - N/A   Overcast
5:56 AM 33.6 °F 26.2 °F 32.5 °F 96% 30.22 in 10.0 mi ESE 9.2 mph - N/A   Overcast
6:16 AM 34.0 °F 28.0 °F 32.9 °F 96% 30.22 in 10.0 mi ESE 6.9 mph - N/A   Overcast
6:36 AM 34.3 °F 27.0 °F 32.9 °F 94% 30.22 in 10.0 mi SE 9.2 mph - N/A   Overcast
6:56 AM 34.7 °F 26.9 °F 32.9 °F 93% 30.22 in 10.0 mi SE 10.4 mph - N/A   Overcast
7:16 AM 34.7 °F 28.1 °F 32.5 °F 92% 30.21 in 7.0 mi SE 8.1 mph 18.4 mph N/A Snow Light Snow
7:36 AM 35.1 °F 27.4 °F 32.4 °F 90% 30.21 in 10.0 mi SE 10.4 mph 16.1 mph N/A   Overcast
7:56 AM 35.6 °F 27.1 °F 32.4 °F 88% 30.20 in 10.0 mi SE 12.7 mph 18.4 mph N/A   Overcast
8:16 AM 35.8 °F 28.3 °F 32.4 °F 87% 30.19 in 10.0 mi SE 10.4 mph 17.3 mph N/A   Overcast
8:36 AM 36.0 °F 28.0 °F 32.5 °F 87% 30.19 in 7.0 mi SE 11.5 mph 19.6 mph N/A Rain Light Rain
8:56 AM 36.0 °F 28.5 °F 32.7 °F 88% 30.19 in 10.0 mi SE 10.4 mph - N/A   Overcast
9:16 AM 36.5 °F 28.2 °F 33.1 °F 87% 30.17 in 10.0 mi SE 12.7 mph 16.1 mph N/A   Overcast
9:36 AM 37.2 °F 28.7 °F 33.4 °F 86% 30.17 in 10.0 mi SE 13.8 mph 19.6 mph N/A   Overcast
9:56 AM 38.1 °F 30.2 °F 33.8 °F 84% 30.17 in 10.0 mi SE 12.7 mph 21.9 mph N/A   Overcast
10:16 AM 38.8 °F 30.8 °F 34.2 °F 83% 30.17 in 10.0 mi SSE 13.8 mph 24.2 mph N/A   Overcast
10:36 AM 39.2 °F 31.6 °F 34.3 °F 83% 30.16 in 10.0 mi SE 12.7 mph 21.9 mph N/A   Overcast
10:56 AM 40.1 °F 32.4 °F 34.3 °F 80% 30.15 in 10.0 mi SE 13.8 mph 19.6 mph N/A   Overcast
11:16 AM 41.0 °F 34.3 °F 34.7 °F 78% 30.14 in 10.0 mi SE 11.5 mph 21.9 mph N/A   Mostly Cloudy
11:36 AM 41.7 °F 34.4 °F 34.9 °F 77% 30.13 in 10.0 mi SE 13.8 mph 23.0 mph N/A   Scattered Clouds
11:56 AM 42.8 °F 34.5 °F 34.9 °F 74% 30.11 in 10.0 mi SSE 18.4 mph 21.9 mph N/A   Scattered Clouds
12:16 PM 43.5 °F 37.1 °F 34.9 °F 72% 30.11 in 10.0 mi SSE 12.7 mph 24.2 mph N/A   Scattered Clouds
12:36 PM 44.1 °F 37.1 °F 35.2 °F 71% 30.10 in 10.0 mi SSE 15.0 mph 23.0 mph N/A   Scattered Clouds
12:56 PM 43.7 °F 36.9 °F 35.6 °F 73% 30.09 in 10.0 mi SSE 13.8 mph 21.9 mph N/A   Scattered Clouds
1:16 PM 43.9 °F 36.8 °F 36.0 °F 74% 30.08 in 10.0 mi SSE 15.0 mph 20.7 mph N/A   Mostly Cloudy
1:36 PM 44.1 °F 37.1 °F 36.5 °F 75% 30.07 in 10.0 mi SSE 15.0 mph 20.7 mph N/A   Overcast
1:56 PM 45.0 °F 38.9 °F 37.0 °F 74% 30.06 in 10.0 mi SSE 12.7 mph 20.7 mph N/A   Mostly Cloudy
2:16 PM 45.7 °F 39.8 °F 37.8 °F 74% 30.05 in 10.0 mi SSE 12.7 mph 18.4 mph N/A   Mostly Cloudy
2:36 PM 46.4 °F 41.5 °F 38.3 °F 73% 30.05 in 10.0 mi SSE 10.4 mph 16.1 mph N/A   Scattered Clouds
2:56 PM 46.9 °F - 39.2 °F 74% 30.04 in 10.0 mi SSE 11.5 mph 18.4 mph N/A Rain Light Rain
3:16 PM 47.1 °F - 39.4 °F 74% 30.04 in 10.0 mi SSE 11.5 mph 16.1 mph N/A   Overcast
3:36 PM 46.4 °F 41.5 °F 39.6 °F 77% 30.03 in 10.0 mi SSE 10.4 mph 17.3 mph N/A Rain Light Rain
3:56 PM 44.8 °F 40.4 °F 40.1 °F 84% 30.02 in 7.0 mi SSE 8.1 mph - N/A   Light Drizzle
4:16 PM 43.7 °F 39.7 °F 40.6 °F 89% 30.01 in 5.0 mi SE 6.9 mph - N/A Rain Rain
4:36 PM 42.8 °F 40.1 °F 41.0 °F 93% 30.01 in 4.0 mi SE 4.6 mph - 0.01 in Rain Light Rain
4:56 PM 43.0 °F 41.3 °F 41.5 °F 95% 30.01 in 3.0 mi SSE 3.5 mph - 0.03 in Rain Rain
5:16 PM 43.2 °F - 42.4 °F 97% 30.00 in 3.0 mi Calm Calm - 0.02 in Rain Rain
5:36 PM 44.1 °F 40.1 °F 43.5 °F 98% 30.02 in 2.5 mi SSW 6.9 mph - 0.06 in Rain Rain
5:56 PM 44.6 °F 43.1 °F 43.9 °F 97% 30.01 in 3.0 mi South 3.5 mph - 0.10 in Rain Rain
6:16 PM 44.6 °F 43.1 °F 43.9 °F 97% 30.01 in 2.5 mi SSW 3.5 mph - N/A Rain Light Rain
6:36 PM 45.5 °F 44.2 °F 44.8 °F 97% 30.01 in 2.5 mi SSW 3.5 mph - N/A   Overcast
6:56 PM 44.6 °F 42.2 °F 43.9 °F 97% 30.01 in 4.0 mi SSW 4.6 mph - N/A   Overcast
7:16 PM 44.2 °F 41.0 °F 43.7 °F 98% 30.02 in 4.0 mi WSW 5.8 mph - N/A   Overcast
7:37 PM 43.7 °F 39.7 °F 42.8 °F 97% 30.03 in 7.0 mi WSW 6.9 mph - N/A   Overcast
7:56 PM 42.8 °F 37.5 °F 41.5 °F 95% 30.04 in 7.0 mi West 9.2 mph - N/A   Overcast
8:16 PM 42.8 °F 37.5 °F 41.4 °F 95% 30.05 in 10.0 mi West 9.2 mph - N/A   Overcast
8:36 PM 41.9 °F 36.9 °F 40.3 °F 94% 30.06 in 10.0 mi West 8.1 mph - N/A   Overcast
8:56 PM 40.6 °F 34.8 °F 38.5 °F 92% 30.07 in 10.0 mi West 9.2 mph 16.1 mph N/A   Overcast
9:16 PM 39.9 °F 33.9 °F 37.6 °F 91% 30.08 in 10.0 mi West 9.2 mph - N/A   Overcast
9:36 PM 39.4 °F 33.8 °F 37.4 °F 93% 30.10 in 10.0 mi WNW 8.1 mph - N/A   Overcast
9:56 PM 39.2 °F 33.6 °F 37.2 °F 93% 30.10 in 10.0 mi West 8.1 mph - N/A   Overcast
10:16 PM 38.7 °F 32.4 °F 37.0 °F 94% 30.11 in 7.0 mi WNW 9.2 mph - N/A   Overcast
10:36 PM 38.5 °F 31.6 °F 36.5 °F 93% 30.12 in 10.0 mi West 10.4 mph - N/A   Overcast
10:56 PM 37.9 °F 32.1 °F 36.0 °F 93% 30.13 in 10.0 mi WNW 8.1 mph - N/A   Overcast
11:16 PM 37.4 °F 30.8 °F 35.6 °F 93% 30.14 in 10.0 mi WNW 9.2 mph - N/A   Overcast
11:36 PM 36.9 °F 30.7 °F 35.1 °F 93% 30.14 in 10.0 mi WNW 8.1 mph - N/A   Overcast
11:56 PM 36.7 °F 30.5 °F 34.9 °F 93% 30.14 in 10.0 mi NW 8.1 mph - N/A   Overcast